Theta_e
295 295 295 295 295 297 298 300 303 307 307 308 309 308 305 307 307 308 309 308 308 309 309 309 309 310 309 307 306 310 307 306 307 306 305 303 304 305 306 312 310 303 304 309
295 295 295 295 295 296 297 299 301 302 306 308 310 305 307 307 308 308 308 309 308 308 310 312 308 308 306 306 306 307 306 309 311 313 308 304 305 304 304 303 303 304 309 313
295 296 295 295 295 295 296 298 301 303 306 307 308 309 309 309 308 308 308 309 308 309 309 308 311 309 305 306 306 308 309 308 311 315 314 306 305 304 304 307 307 309 309 312
295 296 296 295 295 294 295 297 300 302 304 306 303 303 305 308 310 307 308 308 309 311 311 310 310 307 305 305 306 308 308 310 307 308 308 305 306 305 305 308 311 311 313 309
296 295 295 295 295 294 294 296 298 299 300 301 303 302 305 307 308 309 309 309 310 309 311 311 311 308 306 308 305 306 304 310 308 311 307 307 309 306 305 307 309 308 308 308
295 294 294 295 295 295 295 294 296 298 299 301 301 302 304 306 303 304 308 308 307 309 309 310 308 306 306 306 305 305 305 306 309 312 307 308 310 308 309 307 305 309 309 310
296 295 295 296 295 296 295 293 294 297 298 299 298 300 302 303 303 304 304 303 304 308 309 309 310 310 305 302 301 303 305 307 309 310 309 317 312 304 309 311 312 306 306 304
296 296 295 295 295 294 296 294 294 295 297 296 297 298 298 300 302 303 303 303 305 307 308 311 311 309 307 304 299 301 301 308 310 314 310 311 311 306 306 308 309 308 308 306
296 295 295 295 295 296 296 295 295 293 295 296 296 298 299 300 302 302 303 306 305 306 309 310 313 313 311 308 301 298 301 305 311 308 315 318 310 302 302 304 310 305 306 302
295 295 296 295 295 296 295 295 295 294 294 295 296 297 298 299 301 303 304 304 303 304 308 311 312 312 309 309 307 303 305 306 311 313 316 312 306 299 301 310 309 300 303 298
296 296 296 295 295 295 296 295 295 294 294 294 295 296 297 299 299 302 303 303 303 303 308 310 310 309 307 307 306 305 308 309 310 312 315 316 298 298 307 306 299 301 303 300
297 296 296 295 295 295 295 296 295 295 294 294 295 297 296 296 298 300 301 302 302 301 305 306 307 308 302 307 311 300 310 309 310 312 313 304 300 304 303 304 303 300 302 299
296 295 295 295 295 295 295 295 295 295 294 294 294 295 297 296 296 299 300 300 301 302 302 302 303 308 306 306 309 302 300 301 307 309 307 303 301 300 302 303 303 302 301 299
295 296 296 296 296 295 295 295 295 294 294 295 296 296 298 297 299 299 299 300 301 302 303 303 303 306 304 310 308 308 303 302 303 303 302 299 301 303 303 301 301 300 298 298
294 296 295 296 296 295 296 295 295 293 294 296 296 295 295 296 298 300 300 301 301 301 302 301 304 304 303 301 300 302 299 302 307 308 304 306 305 307 302 301 299 298 298 292
293 292 294 295 296 296 293 293 294 295 295 296 297 298 298 298 299 299 299 301 300 301 302 302 305 306 303 307 308 305 304 304 305 304 304 302 300 299 299 299 297 295 294 294
292 291 291 290 292 293 294 293 295 296 295 296 297 296 298 297 298 297 298 299 301 301 302 302 304 302 306 305 310 302 300 301 300 302 301 295 296 294 294 296 293 292 293 293
293 293 293 293 293 294 295 293 294 294 296 296 297 294 294 297 297 298 298 300 300 301 301 301 304 302 302 308 293 292 293 296 297 297 299 300 297 293 291 292 292 292 290 289
295 294 294 294 294 295 294 295 296 296 297 297 293 292 297 295 296 297 297 297 300 300 301 302 302 303 294 287 287 290 291 292 291 293 295 294 293 290 289 290 289 290 285 286
296 295 295 294 296 296 296 296 296 296 296 296 296 293 297 295 295 296 296 296 299 300 295 295 293 288 285 284 285 286 288 289 289 288 285 286 285 285 285 286 286 287 286 285
295 295 295 295 295 295 296 296 296 293 293 292 293 293 293 295 295 296 295 296 296 299 295 298 290 286 284 283 284 285 286 287 289 290 289 286 285 283 284 285 286 286 285 284
294 293 293 294 294 294 295 294 293 294 293 290 289 292 293 293 294 295 295 296 296 296 293 292 288 285 282 282 282 283 284 285 285 286 285 284 285 286 286 285 285 284 283 281
294 293 293 291 290 290 290 290 291 291 291 291 290 291 293 293 293 293 293 294 293 292 290 287 285 283 281 281 281 282 282 283 284 284 285 286 285 286 286 284 283 281 281 280
292 291 288 289 289 289 289 289 289 289 290 288 286 290 292 292 292 292 293 292 292 292 288 285 282 281 280 281 281 282 282 283 284 284 284 284 284 283 283 282 281 281 280 280
289 288 287 288 287 287 288 285 285 286 285 283 285 292 292 291 292 290 291 290 286 284 283 282 281 280 280 281 281 282 282 283 283 283 283 283 282 281 280 280 280 280 280 279
288 286 286 286 286 286 284 282 281 281 279 284 287 291 292 289 286 285 282 285 282 282 280 279 280 280 280 281 281 282 282 282 282 282 281 280 280 280 280 279 279 279 279 279
287 286 285 284 284 284 282 279 278 279 281 288 289 286 284 287 284 282 281 280 279 277 277 278 279 280 280 281 281 281 281 281 280 280 280 280 280 279 279 279 279 278 278 278
Wind_Speed
28 29 30 29 29 31 29 19 6 11 13 8 6 10 8 8 4 15 6 4 8 9 8 7 6 9 6 10 13 9 5 5 5 7 2 3 3 6 7 5 6 1 1 7
32 28 28 28 28 26 29 17 22 26 17 4 7 5 10 16 7 7 8 9 6 4 8 4 8 6 1 15 9 9 9 4 3 1 1 2 6 6 4 5 3 7 6 7
32 30 26 26 27 24 25 12 4 10 11 16 5 5 12 14 15 25 9 5 6 4 6 6 5 7 1 10 6 2 7 4 7 10 5 6 6 7 10 6 3 5 9 7
31 31 28 25 24 20 21 9 6 8 4 5 9 6 6 9 10 8 10 5 16 16 11 5 6 3 3 1 7 3 4 5 4 4 3 4 5 7 17 19 19 10 13 13
34 30 29 26 22 17 19 12 7 11 19 19 5 6 6 10 13 7 10 14 18 19 21 20 16 7 5 5 2 5 2 2 3 3 4 5 5 5 14 20 17 15 12 14
30 31 29 29 23 17 16 20 27 14 12 5 5 6 4 8 18 12 17 17 18 10 22 25 12 9 4 1 8 10 7 6 4 4 3 2 8 15 17 8 8 15 11 19
35 30 29 27 25 20 19 24 23 13 8 6 9 17 15 17 17 18 19 25 14 15 16 16 6 3 3 3 3 3 6 6 3 3 3 10 2 0 15 22 19 17 9 4
37 35 31 29 27 25 23 21 20 16 9 10 14 14 18 26 23 17 17 30 31 27 16 3 4 4 3 6 4 5 1 5 3 4 6 8 6 5 7 9 10 19 22 10
39 35 34 31 26 24 25 24 20 20 13 14 22 10 14 14 11 10 10 15 20 17 4 4 7 7 6 7 5 4 4 1 6 3 5 11 3 3 7 5 11 12 18 10
36 35 34 31 29 26 26 28 24 21 19 28 21 11 9 13 11 10 5 6 8 10 6 8 6 10 7 7 12 7 5 3 14 11 7 7 5 7 9 5 6 3 15 18
33 33 32 30 29 28 25 29 26 25 27 38 33 31 27 20 20 12 6 8 5 3 4 4 4 4 7 4 5 10 12 11 6 6 7 16 8 6 9 4 3 7 14 23
29 29 30 30 29 29 25 31 29 27 29 34 32 30 34 37 39 30 14 11 4 5 3 3 2 3 1 5 6 2 7 8 7 11 7 2 27 8 23 6 5 9 15 22
27 28 29 28 27 27 26 29 28 26 26 33 38 38 48 42 45 42 19 22 16 13 15 3 2 6 7 5 8 3 4 2 4 4 6 7 19 19 12 15 9 11 14 23
31 28 28 27 27 29 24 28 27 24 16 7 18 24 27 30 30 34 40 48 33 28 14 5 3 4 5 9 5 8 5 12 8 5 3 1 14 26 26 17 14 15 18 24
25 22 20 23 27 30 23 22 25 29 25 9 21 37 48 44 34 29 31 39 41 29 10 6 6 4 4 3 2 4 5 7 8 8 11 9 7 25 31 25 22 22 28 30
22 19 15 16 13 7 8 6 8 18 25 12 5 15 25 23 24 31 38 38 38 29 10 5 8 17 4 4 6 3 21 14 8 5 15 9 8 14 26 28 25 26 30 33
22 19 18 15 13 11 12 8 6 15 25 7 4 5 6 10 14 18 22 24 21 22 13 5 5 5 14 3 6 3 8 13 8 11 17 9 15 10 23 26 27 29 29 29
25 24 21 18 17 19 22 28 27 22 24 11 4 5 4 8 6 3 10 11 20 14 9 5 6 5 3 5 4 4 4 10 11 13 7 5 16 20 24 27 31 32 32 32
26 24 25 24 15 10 12 12 12 18 16 4 5 3 3 1 1 6 4 8 4 10 6 5 8 4 2 6 13 11 3 2 9 10 10 15 20 25 27 30 33 37 36 33
19 18 6 4 4 11 14 8 5 5 7 7 2 2 3 0 3 2 2 4 2 2 0 2 4 3 3 20 14 9 2 7 13 20 14 20 26 30 31 32 33 36 35 31
14 5 4 6 14 9 4 2 2 2 2 5 5 4 3 5 3 3 5 2 1 2 1 2 3 3 7 19 15 12 5 5 2 2 10 17 26 33 34 32 32 31 29 26
22 17 20 9 5 3 3 2 3 2 2 4 2 5 6 7 5 2 2 2 2 3 4 4 3 3 17 17 17 14 11 11 16 16 23 26 29 31 33 32 30 27 24 23
5 6 5 7 8 6 5 6 3 5 6 6 12 6 5 4 3 1 2 4 3 3 4 3 3 12 18 15 15 17 18 21 25 27 29 30 31 29 28 28 24 22 21 19
6 7 7 4 4 4 3 7 7 12 11 18 21 6 2 3 2 2 2 2 4 4 5 4 5 15 15 14 14 19 23 26 29 30 29 28 27 26 23 21 19 18 18 17
7 7 5 4 8 12 15 19 15 15 20 18 10 6 2 2 3 4 4 5 6 5 4 4 14 12 13 16 18 21 24 25 26 25 25 24 22 21 22 19 17 15 15 14
5 6 4 13 6 8 17 21 18 17 27 12 4 3 3 6 3 6 7 4 4 3 3 14 9 9 13 17 20 21 21 22 22 21 20 19 18 17 17 17 15 13 12 11
4 4 4 13 8 10 22 20 17 26 14 4 3 6 4 3 5 5 5 4 4 10 11 9 8 9 12 15 17 18 18 18 18 18 16 16 16 14 13 12 12 10 9 8
Wind_Direction
327 329 327 325 326 329 332 319 286 285 345 203 199 233 227 223 250 222 238 179 186 187 181 194 215 215 241 162 144 168 189 120 170 196 257 189 185 192 174 158 205 227 162 271
319 322 331 324 330 329 333 308 294 293 255 249 227 273 257 236 240 214 193 208 219 196 185 221 198 199 264 172 165 161 181 199 121 331 342 324 209 197 178 113 103 196 151 257
315 318 319 326 325 325 327 302 291 304 227 234 256 280 268 251 235 244 230 195 103 49 289 240 215 215 47 183 195 171 142 172 192 203 186 131 194 191 180 157 145 195 221 252
308 312 314 315 323 324 321 291 273 279 334 305 337 319 300 304 297 224 235 219 214 209 231 242 212 164 149 164 196 139 160 223 203 241 150 174 200 184 185 200 218 202 246 214
303 305 302 309 311 315 309 285 283 297 295 301 280 328 313 306 294 279 284 236 231 218 221 219 250 163 191 191 108 154 163 228 154 278 215 230 249 193 199 217 230 249 257 276
301 302 298 296 297 298 297 295 301 285 290 306 304 292 278 322 325 289 307 289 306 225 226 222 150 93 17 219 168 182 155 153 149 254 99 355 276 203 212 196 208 221 219 240
294 290 292 291 289 280 278 288 291 278 269 273 291 290 290 292 291 283 290 293 282 287 239 172 155 203 9 88 358 176 162 162 170 164 89 249 268 124 218 217 234 216 265 204
290 289 283 283 280 279 270 278 279 281 287 271 278 281 305 300 291 282 280 286 268 276 173 106 127 163 138 199 191 210 217 162 188 182 202 295 283 206 170 178 254 217 224 215
284 284 283 281 276 272 275 266 268 264 277 267 275 266 288 297 283 292 249 304 305 222 198 163 204 181 163 184 163 199 164 306 209 163 222 234 218 173 141 132 277 223 204 177
283 278 277 275 272 269 267 267 261 260 266 273 269 251 261 277 271 269 296 321 332 269 223 215 198 218 165 177 174 161 158 176 215 209 238 273 210 165 134 157 247 160 178 165
281 274 272 272 268 266 265 266 264 255 259 270 261 267 265 251 268 266 313 328 243 242 237 215 178 221 207 157 176 172 166 171 187 210 214 247 143 85 178 196 157 167 173 178
279 276 275 272 268 264 264 261 267 265 261 261 272 255 262 262 261 258 251 254 265 240 329 312 290 183 141 159 218 269 188 181 182 189 212 185 183 206 207 188 171 188 183 180
292 283 275 273 268 262 258 260 266 267 270 276 263 262 268 273 255 247 249 253 235 241 243 256 260 268 169 191 231 111 272 147 181 132 215 213 208 219 217 217 216 195 192 181
303 285 277 267 265 262 247 258 265 259 264 263 275 281 260 277 267 250 246 247 245 253 244 252 234 258 274 223 197 205 180 156 170 259 273 347 237 222 226 212 204 181 169 176
340 299 285 285 265 275 259 261 262 259 248 280 284 291 285 272 264 251 248 243 239 243 241 225 243 230 206 273 70 218 193 164 179 215 188 193 188 217 213 200 187 183 174 162
335 340 335 321 264 246 284 301 276 252 251 245 256 279 267 265 252 247 239 240 229 225 212 205 228 229 166 235 219 212 195 197 192 181 171 166 151 176 194 190 183 178 174 169
331 327 321 308 289 266 238 224 267 270 301 262 268 267 250 249 242 231 233 229 224 224 236 229 242 241 207 244 249 71 171 193 175 147 141 123 155 171 177 180 168 167 160 159
316 315 310 302 292 284 269 268 271 272 264 233 240 261 307 192 187 228 209 221 206 215 206 212 218 227 233 227 12 358 149 159 155 171 186 176 166 157 163 170 163 156 152 150
313 303 301 298 278 248 259 279 273 261 244 249 214 206 268 185 80 228 232 235 219 186 197 192 185 175 57 334 322 328 276 229 157 149 149 149 158 156 158 161 159 152 145 146
312 304 289 262 218 257 277 273 217 215 220 238 262 293 288 156 212 262 264 228 257 220 325 38 60 76 352 2 6 9 358 137 153 132 124 149 143 148 150 152 153 148 145 142
351 311 263 292 297 299 239 263 237 255 285 339 324 340 318 292 250 245 235 260 314 280 265 90 71 28 351 356 18 33 59 133 124 114 162 155 148 140 142 142 143 139 138 138
312 296 295 315 349 308 312 296 315 345 352 326 312 287 271 285 284 271 330 317 20 310 324 64 62 6 352 10 25 41 68 95 102 115 127 136 139 139 134 133 134 133 136 143
23 16 5 1 357 24 18 339 329 331 340 357 332 309 289 297 313 319 351 21 21 318 32 62 38 349 6 21 51 68 85 99 107 112 119 122 124 126 127 128 128 135 137 137
39 26 23 35 353 8 313 309 296 293 290 321 312 268 294 315 340 332 56 345 29 46 38 36 4 353 14 40 65 87 92 100 105 109 113 114 116 116 117 122 129 133 133 133
51 33 23 356 322 299 310 317 306 306 313 316 300 274 351 342 22 7 5 44 56 38 29 345 341 3 40 60 72 82 88 94 98 103 103 105 110 118 120 120 122 127 129 133
58 50 3 333 316 324 341 336 323 329 327 333 270 351 28 40 43 35 10 46 40 24 346 330 3 47 71 81 85 88 92 93 96 98 101 107 111 115 118 121 122 124 127 130
41 25 336 345 283 295 329 330 323 345 339 11 21 42 14 332 44 30 19 32 339 330 346 20 44 67 80 88 91 91 91 94 95 98 101 102 105 108 112 118 121 124 127 128